QPF
0.03 0.02 0.04 0.04 0.09 0.06 0.07 0.04 0.03 0.02 0.02 0.02 0.03 0.03 0.03 0.03 0.03 0.03 0.03 0.03 0.04 0.06 0.05 0.04 0.04 0.05 0.05 0.05 0.06 0.06 0.07 0.09 0.10 0.09 0.07 0.07 0.08 0.09 0.09 0.08 0.08 0.09 0.07
0.01 0.01 0.03 0.04 0.10 0.08 0.08 0.04 0.03 0.02 0.02 0.02 0.03 0.03 0.03 0.03 0.03 0.03 0.03 0.03 0.03 0.04 0.04 0.04 0.03 0.03 0.04 0.05 0.05 0.05 0.04 0.05 0.07 0.09 0.10 0.07 0.07 0.08 0.09 0.07 0.07 0.06 0.05
0.02 0.02 0.03 0.02 0.03 0.05 0.07 0.04 0.04 0.03 0.03 0.02 0.02 0.03 0.04 0.03 0.03 0.04 0.04 0.02 0.03 0.04 0.05 0.05 0.03 0.03 0.04 0.04 0.04 0.04 0.03 0.03 0.03 0.05 0.06 0.03 0.03 0.04 0.05 0.06 0.07 0.05 0.05
0.01 0.02 0.03 0.03 0.03 0.03 0.05 0.06 0.04 0.04 0.03 0.03 0.03 0.03 0.04 0.04 0.03 0.05 0.05 0.03 0.03 0.03 0.04 0.04 0.03 0.03 0.03 0.03 0.03 0.03 0.02 0.02 0.03 0.03 0.03 0.02 0.02 0.03 0.04 0.04 0.04 0.05 0.05
0.01 0.01 0.03 0.03 0.03 0.03 0.07 0.10 0.07 0.05 0.03 0.02 0.02 0.03 0.04 0.04 0.03 0.03 0.04 0.04 0.03 0.04 0.04 0.04 0.05 0.05 0.03 0.02 0.03 0.02 0.02 0.02 0.03 0.02 0.03 0.03 0.02 0.03 0.03 0.03 0.03 0.03 0.03
0.01 0.02 0.03 0.03 0.05 0.06 0.12 0.15 0.09 0.06 0.03 0.02 0.02 0.02 0.03 0.03 0.03 0.04 0.04 0.04 0.05 0.04 0.04 0.04 0.04 0.04 0.03 0.02 0.03 0.03 0.02 0.03 0.03 0.03 0.04 0.03 0.02 0.03 0.03 0.03 0.03 0.02 0.02
0.01 0.01 0.01 0.02 0.09 0.14 0.18 0.14 0.08 0.06 0.05 0.04 0.04 0.05 0.04 0.04 0.04 0.04 0.05 0.05 0.05 0.05 0.04 0.04 0.03 0.03 0.01 0.02 0.03 0.04 0.03 0.03 0.04 0.04 0.02 0.02 0.01 0.02 0.02 0.02 0.03 0.02 0.02
0.01 0.01 0.01 0.03 0.09 0.17 0.16 0.10 0.07 0.07 0.07 0.07 0.08 0.09 0.06 0.05 0.04 0.04 0.05 0.05 0.05 0.04 0.04 0.04 0.03 0.02 0.01 0.03 0.04 0.04 0.04 0.04 0.03 0.03 0.01 0.01 0.00 0.01 0.02 0.02 0.01 0.01 0.01
0.01 0.00 0.01 0.03 0.07 0.10 0.11 0.11 0.08 0.08 0.11 0.15 0.12 0.12 0.10 0.06 0.06 0.06 0.06 0.06 0.04 0.04 0.04 0.03 0.03 0.03 0.02 0.04 0.04 0.03 0.04 0.05 0.03 0.02 0.01 0.00 0.01 0.01 0.02 0.02 0.01 0.01 0.01
0.02 0.01 0.01 0.03 0.03 0.04 0.06 0.07 0.07 0.10 0.24 0.30 0.16 0.10 0.08 0.07 0.08 0.07 0.06 0.05 0.05 0.05 0.04 0.03 0.03 0.02 0.03 0.03 0.02 0.02 0.04 0.04 0.03 0.03 0.02 0.02 0.01 0.02 0.02 0.01 0.02 0.02 0.02
0.02 0.02 0.01 0.01 0.01 0.01 0.01 0.02 0.05 0.16 0.31 0.24 0.14 0.09 0.07 0.05 0.07 0.08 0.07 0.07 0.06 0.05 0.05 0.04 0.02 0.03 0.04 0.03 0.03 0.02 0.03 0.03 0.03 0.03 0.03 0.01 0.01 0.02 0.02 0.02 0.03 0.03 0.02
0.02 0.02 0.01 0.01 0.00 0.01 0.00 0.01 0.06 0.10 0.23 0.19 0.12 0.07 0.05 0.04 0.05 0.06 0.06 0.07 0.06 0.08 0.07 0.06 0.05 0.03 0.03 0.03 0.03 0.03 0.03 0.02 0.03 0.02 0.02 0.01 0.02 0.02 0.02 0.02 0.03 0.04 0.05
0.02 0.02 0.01 0.00 0.00 0.00 0.00 0.01 0.06 0.15 0.22 0.16 0.10 0.05 0.04 0.04 0.06 0.05 0.05 0.07 0.08 0.08 0.06 0.06 0.05 0.03 0.04 0.05 0.03 0.03 0.02 0.03 0.04 0.04 0.03 0.05 0.04 0.04 0.03 0.03 0.03 0.04 0.05
0.01 0.02 0.01 0.00 0.01 0.01 0.00 0.00 0.01 0.04 0.08 0.09 0.07 0.06 0.05 0.05 0.06 0.05 0.05 0.06 0.07 0.06 0.04 0.04 0.03 0.02 0.03 0.03 0.03 0.03 0.03 0.04 0.05 0.04 0.04 0.06 0.04 0.05 0.06 0.06 0.05 0.05 0.05
0.01 0.03 0.01 0.01 0.01 0.01 0.01 0.01 0.01 0.01 0.02 0.03 0.02 0.04 0.06 0.05 0.04 0.05 0.04 0.04 0.04 0.04 0.04 0.03 0.02 0.02 0.02 0.02 0.03 0.03 0.05 0.06 0.04 0.04 0.02 0.02 0.04 0.06 0.07 0.06 0.06 0.05 0.04
0.02 0.03 0.02 0.02 0.01 0.02 0.02 0.01 0.01 0.01 0.01 0.01 0.01 0.02 0.03 0.03 0.03 0.05 0.04 0.04 0.03 0.02 0.03 0.03 0.03 0.03 0.03 0.03 0.02 0.02 0.02 0.03 0.03 0.04 0.04 0.03 0.03 0.06 0.08 0.08 0.06 0.06 0.06
0.03 0.04 0.04 0.03 0.02 0.01 0.01 0.01 0.01 0.01 0.02 0.01 0.02 0.03 0.03 0.03 0.03 0.03 0.03 0.03 0.02 0.03 0.05 0.05 0.06 0.05 0.03 0.02 0.02 0.01 0.02 0.02 0.03 0.04 0.06 0.05 0.03 0.05 0.08 0.10 0.08 0.09 0.10
0.05 0.06 0.05 0.03 0.02 0.01 0.00 0.01 0.01 0.01 0.02 0.02 0.02 0.03 0.03 0.02 0.02 0.03 0.03 0.03 0.04 0.05 0.06 0.06 0.09 0.05 0.04 0.03 0.03 0.02 0.03 0.03 0.03 0.04 0.06 0.07 0.05 0.05 0.07 0.08 0.07 0.08 0.09
0.03 0.03 0.03 0.03 0.02 0.02 0.02 0.01 0.01 0.02 0.02 0.01 0.01 0.02 0.02 0.02 0.03 0.04 0.04 0.05 0.13 0.11 0.06 0.06 0.07 0.06 0.06 0.07 0.04 0.05 0.05 0.04 0.04 0.05 0.08 0.07 0.09 0.07 0.06 0.06 0.08 0.08 0.08
0.02 0.02 0.03 0.03 0.03 0.03 0.03 0.02 0.02 0.03 0.02 0.01 0.01 0.01 0.01 0.02 0.03 0.04 0.04 0.06 0.08 0.08 0.08 0.07 0.05 0.05 0.05 0.04 0.05 0.06 0.05 0.06 0.06 0.06 0.10 0.08 0.09 0.08 0.08 0.07 0.07 0.07 0.08
0.01 0.01 0.02 0.02 0.03 0.03 0.03 0.03 0.03 0.02 0.01 0.01 0.01 0.01 0.02 0.02 0.03 0.04 0.04 0.05 0.05 0.06 0.06 0.06 0.06 0.05 0.04 0.06 0.06 0.06 0.05 0.05 0.07 0.08 0.09 0.07 0.08 0.10 0.09 0.07 0.07 0.08 0.11
0.00 0.01 0.02 0.02 0.03 0.03 0.03 0.03 0.03 0.02 0.02 0.01 0.01 0.01 0.02 0.02 0.02 0.03 0.04 0.04 0.05 0.06 0.07 0.08 0.08 0.06 0.06 0.07 0.08 0.06 0.06 0.09 0.14 0.12 0.09 0.07 0.08 0.11 0.13 0.10 0.08 0.10 0.10
0.00 0.01 0.01 0.01 0.02 0.02 0.03 0.03 0.03 0.02 0.02 0.02 0.02 0.02 0.02 0.02 0.02 0.04 0.03 0.03 0.04 0.04 0.04 0.04 0.05 0.03 0.04 0.05 0.06 0.05 0.04 0.05 0.08 0.11 0.10 0.09 0.09 0.08 0.05 0.05 0.05 0.07 0.08
0.00 0.01 0.00 0.00 0.00 0.02 0.02 0.03 0.04 0.05 0.03 0.03 0.03 0.04 0.03 0.02 0.02 0.04 0.04 0.04 0.05 0.04 0.04 0.04 0.04 0.03 0.03 0.03 0.05 0.05 0.04 0.05 0.04 0.05 0.07 0.10 0.09 0.07 0.05 0.04 0.03 0.05 0.05
0.00 0.00 0.00 0.00 0.00 0.01 0.02 0.02 0.04 0.05 0.04 0.03 0.03 0.04 0.03 0.03 0.02 0.03 0.05 0.05 0.06 0.06 0.05 0.04 0.03 0.03 0.02 0.02 0.03 0.04 0.05 0.06 0.05 0.05 0.06 0.08 0.08 0.07 0.05 0.05 0.05 0.05 0.05
0.00 0.00 0.00 0.00 0.00 0.01 0.01 0.02 0.03 0.02 0.02 0.01 0.02 0.03 0.04 0.03 0.03 0.03 0.06 0.07 0.08 0.09 0.07 0.05 0.03 0.02 0.02 0.03 0.03 0.03 0.04 0.05 0.06 0.06 0.05 0.05 0.06 0.05 0.04 0.05 0.05 0.05 0.07
MSLP
1012.51 1011.82 1011.28 1010.97 1010.89 1010.98 1011.18 1011.37 1011.50 1011.51 1011.43 1011.28 1011.14 1011.07 1011.09 1011.20 1011.39 1011.58 1011.73 1011.77 1011.68 1011.46 1011.14 1010.76 1010.37 1010.02 1009.75 1009.57 1009.50 1009.53 1009.67 1009.90 1010.23 1010.65 1011.16 1011.73 1012.35 1012.98 1013.60 1014.18 1014.70 1015.15 1015.53
1012.43 1011.85 1011.40 1011.17 1011.13 1011.25 1011.43 1011.60 1011.71 1011.71 1011.63 1011.50 1011.39 1011.35 1011.39 1011.51 1011.69 1011.88 1012.01 1012.04 1011.97 1011.79 1011.54 1011.24 1010.94 1010.67 1010.45 1010.31 1010.24 1010.25 1010.34 1010.52 1010.78 1011.15 1011.60 1012.12 1012.69 1013.27 1013.85 1014.38 1014.87 1015.29 1015.66
1012.21 1011.76 1011.44 1011.31 1011.34 1011.49 1011.68 1011.85 1011.94 1011.94 1011.87 1011.76 1011.67 1011.65 1011.69 1011.80 1011.95 1012.10 1012.20 1012.23 1012.17 1012.04 1011.86 1011.65 1011.46 1011.29 1011.15 1011.07 1011.03 1011.03 1011.11 1011.25 1011.47 1011.78 1012.18 1012.64 1013.14 1013.66 1014.16 1014.63 1015.06 1015.44 1015.79
1011.92 1011.61 1011.43 1011.41 1011.52 1011.72 1011.92 1012.09 1012.17 1012.18 1012.11 1012.03 1011.96 1011.94 1011.97 1012.05 1012.16 1012.26 1012.32 1012.33 1012.28 1012.20 1012.10 1011.99 1011.91 1011.84 1011.80 1011.78 1011.78 1011.80 1011.87 1012.00 1012.20 1012.47 1012.82 1013.22 1013.65 1014.09 1014.51 1014.90 1015.25 1015.58 1015.88
1011.64 1011.48 1011.44 1011.53 1011.71 1011.94 1012.16 1012.32 1012.40 1012.40 1012.35 1012.28 1012.22 1012.20 1012.22 1012.27 1012.32 1012.37 1012.39 1012.38 1012.35 1012.31 1012.28 1012.27 1012.28 1012.31 1012.35 1012.39 1012.43 1012.48 1012.56 1012.68 1012.86 1013.11 1013.42 1013.76 1014.13 1014.48 1014.82 1015.13 1015.41 1015.67 1015.93
1011.45 1011.43 1011.51 1011.69 1011.93 1012.18 1012.39 1012.53 1012.59 1012.59 1012.54 1012.49 1012.44 1012.43 1012.44 1012.46 1012.47 1012.47 1012.46 1012.43 1012.41 1012.40 1012.43 1012.50 1012.59 1012.69 1012.79 1012.88 1012.95 1013.01 1013.10 1013.22 1013.39 1013.62 1013.89 1014.19 1014.50 1014.78 1015.05 1015.28 1015.49 1015.69 1015.91
1011.39 1011.49 1011.66 1011.90 1012.17 1012.41 1012.59 1012.70 1012.73 1012.72 1012.68 1012.64 1012.62 1012.62 1012.63 1012.64 1012.63 1012.59 1012.55 1012.51 1012.49 1012.51 1012.58 1012.69 1012.83 1012.98 1013.11 1013.22 1013.30 1013.37 1013.45 1013.56 1013.72 1013.93 1014.17 1014.44 1014.70 1014.94 1015.14 1015.31 1015.46 1015.63 1015.81
1011.49 1011.66 1011.90 1012.16 1012.41 1012.61 1012.75 1012.80 1012.81 1012.78 1012.75 1012.74 1012.75 1012.78 1012.80 1012.81 1012.79 1012.74 1012.67 1012.62 1012.60 1012.63 1012.72 1012.86 1013.02 1013.18 1013.32 1013.42 1013.49 1013.55 1013.61 1013.70 1013.84 1014.03 1014.26 1014.50 1014.73 1014.93 1015.09 1015.22 1015.34 1015.47 1015.63
1011.70 1011.92 1012.18 1012.43 1012.64 1012.78 1012.84 1012.84 1012.80 1012.76 1012.75 1012.77 1012.82 1012.89 1012.95 1012.97 1012.95 1012.89 1012.82 1012.75 1012.72 1012.75 1012.83 1012.97 1013.14 1013.29 1013.42 1013.50 1013.55 1013.57 1013.61 1013.68 1013.79 1013.97 1014.17 1014.39 1014.60 1014.78 1014.91 1015.02 1015.12 1015.23 1015.39
1011.94 1012.19 1012.45 1012.67 1012.82 1012.88 1012.87 1012.81 1012.73 1012.68 1012.68 1012.73 1012.83 1012.94 1013.04 1013.09 1013.08 1013.02 1012.94 1012.86 1012.81 1012.83 1012.90 1013.03 1013.17 1013.31 1013.42 1013.48 1013.50 1013.50 1013.51 1013.55 1013.64 1013.79 1013.97 1014.17 1014.37 1014.53 1014.66 1014.76 1014.85 1014.96 1015.11
1012.14 1012.40 1012.64 1012.82 1012.91 1012.91 1012.83 1012.71 1012.61 1012.55 1012.56 1012.64 1012.78 1012.93 1013.06 1013.14 1013.14 1013.09 1012.99 1012.90 1012.84 1012.84 1012.89 1013.00 1013.13 1013.25 1013.34 1013.39 1013.40 1013.38 1013.37 1013.38 1013.45 1013.57 1013.73 1013.91 1014.08 1014.24 1014.37 1014.47 1014.56 1014.68 1014.82
1012.22 1012.49 1012.71 1012.86 1012.90 1012.85 1012.72 1012.57 1012.44 1012.38 1012.40 1012.51 1012.67 1012.85 1013.00 1013.09 1013.11 1013.06 1012.97 1012.86 1012.79 1012.77 1012.81 1012.90 1013.02 1013.13 1013.22 1013.26 1013.26 1013.24 1013.22 1013.22 1013.26 1013.35 1013.48 1013.64 1013.80 1013.95 1014.08 1014.19 1014.29 1014.41 1014.56
1012.16 1012.43 1012.65 1012.77 1012.79 1012.71 1012.57 1012.40 1012.26 1012.19 1012.22 1012.33 1012.50 1012.69 1012.85 1012.95 1012.98 1012.93 1012.84 1012.74 1012.67 1012.64 1012.67 1012.75 1012.85 1012.97 1013.05 1013.11 1013.12 1013.10 1013.08 1013.07 1013.09 1013.15 1013.25 1013.38 1013.52 1013.66 1013.80 1013.92 1014.05 1014.18 1014.34
1011.95 1012.22 1012.44 1012.57 1012.59 1012.51 1012.37 1012.21 1012.08 1012.02 1012.04 1012.14 1012.30 1012.47 1012.62 1012.72 1012.75 1012.72 1012.64 1012.55 1012.48 1012.46 1012.49 1012.56 1012.67 1012.78 1012.88 1012.94 1012.97 1012.97 1012.95 1012.92 1012.92 1012.95 1013.02 1013.12 1013.24 1013.38 1013.52 1013.66 1013.81 1013.97 1014.13
1011.62 1011.90 1012.13 1012.27 1012.31 1012.27 1012.16 1012.03 1011.92 1011.86 1011.87 1011.95 1012.07 1012.21 1012.34 1012.42 1012.46 1012.44 1012.39 1012.33 1012.28 1012.27 1012.31 1012.38 1012.49 1012.60 1012.70 1012.78 1012.81 1012.82 1012.80 1012.77 1012.74 1012.74 1012.77 1012.84 1012.94 1013.06 1013.22 1013.38 1013.56 1013.75 1013.93
1011.21 1011.48 1011.72 1011.89 1011.98 1011.99 1011.94 1011.86 1011.78 1011.73 1011.73 1011.76 1011.84 1011.93 1012.02 1012.09 1012.12 1012.13 1012.11 1012.09 1012.09 1012.10 1012.15 1012.23 1012.33 1012.43 1012.53 1012.60 1012.63 1012.64 1012.61 1012.57 1012.52 1012.49 1012.48 1012.51 1012.58 1012.70 1012.87 1013.06 1013.27 1013.49 1013.71
1010.76 1011.02 1011.26 1011.46 1011.60 1011.68 1011.70 1011.69 1011.66 1011.63 1011.61 1011.60 1011.62 1011.65 1011.70 1011.74 1011.78 1011.81 1011.85 1011.88 1011.92 1011.97 1012.04 1012.12 1012.20 1012.29 1012.36 1012.41 1012.43 1012.43 1012.39 1012.33 1012.25 1012.19 1012.14 1012.14 1012.19 1012.30 1012.46 1012.68 1012.92 1013.18 1013.43
1010.29 1010.52 1010.75 1010.97 1011.17 1011.33 1011.45 1011.52 1011.55 1011.55 1011.52 1011.47 1011.43 1011.40 1011.39 1011.40 1011.44 1011.51 1011.59 1011.68 1011.78 1011.87 1011.96 1012.04 1012.10 1012.16 1012.20 1012.22 1012.23 1012.20 1012.15 1012.07 1011.97 1011.88 1011.80 1011.76 1011.78 1011.87 1012.03 1012.25 1012.52 1012.81 1013.09
1009.79 1009.98 1010.20 1010.44 1010.69 1010.93 1011.15 1011.32 1011.43 1011.47 1011.44 1011.37 1011.27 1011.18 1011.12 1011.10 1011.13 1011.22 1011.35 1011.50 1011.65 1011.78 1011.89 1011.97 1012.02 1012.04 1012.05 1012.05 1012.03 1011.98 1011.92 1011.83 1011.72 1011.60 1011.50 1011.43 1011.41 1011.47 1011.60 1011.81 1012.08 1012.38 1012.69
1009.27 1009.41 1009.60 1009.85 1010.15 1010.48 1010.80 1011.07 1011.27 1011.37 1011.37 1011.29 1011.15 1011.00 1010.89 1010.83 1010.85 1010.95 1011.11 1011.31 1011.50 1011.67 1011.80 1011.89 1011.92 1011.93 1011.92 1011.89 1011.86 1011.81 1011.75 1011.66 1011.55 1011.42 1011.29 1011.18 1011.12 1011.13 1011.22 1011.39 1011.63 1011.92 1012.22
1008.69 1008.78 1008.94 1009.19 1009.54 1009.95 1010.38 1010.77 1011.08 1011.26 1011.30 1011.22 1011.05 1010.86 1010.69 1010.60 1010.59 1010.69 1010.87 1011.10 1011.33 1011.53 1011.68 1011.77 1011.80 1011.80 1011.78 1011.75 1011.72 1011.70 1011.66 1011.59 1011.49 1011.37 1011.22 1011.07 1010.95 1010.89 1010.90 1011.00 1011.18 1011.42 1011.69
1008.08 1008.11 1008.24 1008.49 1008.88 1009.37 1009.90 1010.41 1010.82 1011.09 1011.19 1011.13 1010.96 1010.74 1010.52 1010.39 1010.35 1010.43 1010.61 1010.85 1011.10 1011.32 1011.49 1011.59 1011.63 1011.64 1011.62 1011.61 1011.61 1011.62 1011.63 1011.60 1011.54 1011.42 1011.26 1011.07 1010.89 1010.75 1010.66 1010.66 1010.74 1010.90 1011.11
1007.46 1007.45 1007.53 1007.78 1008.20 1008.74 1009.36 1009.98 1010.50 1010.86 1011.03 1011.00 1010.84 1010.60 1010.35 1010.18 1010.11 1010.16 1010.33 1010.56 1010.82 1011.05 1011.22 1011.33 1011.38 1011.40 1011.41 1011.43 1011.48 1011.55 1011.61 1011.65 1011.63 1011.54 1011.37 1011.15 1010.91 1010.66 1010.47 1010.34 1010.31 1010.36 1010.48
1006.89 1006.83 1006.88 1007.11 1007.54 1008.12 1008.81 1009.50 1010.10 1010.54 1010.78 1010.80 1010.65 1010.41 1010.15 1009.94 1009.84 1009.87 1010.01 1010.22 1010.47 1010.69 1010.86 1010.97 1011.03 1011.06 1011.10 1011.17 1011.27 1011.40 1011.53 1011.64 1011.68 1011.62 1011.47 1011.23 1010.92 1010.59 1010.28 1010.03 1009.87 1009.80 1009.83
1006.44 1006.33 1006.34 1006.54 1006.95 1007.54 1008.25 1008.98 1009.64 1010.14 1010.42 1010.48 1010.36 1010.13 1009.87 1009.65 1009.53 1009.53 1009.64 1009.83 1010.05 1010.25 1010.40 1010.50 1010.56 1010.60 1010.65 1010.75 1010.90 1011.10 1011.30 1011.48 1011.58 1011.58 1011.45 1011.20 1010.86 1010.47 1010.06 1009.70 1009.42 1009.24 1009.17
1006.17 1006.02 1005.98 1006.13 1006.49 1007.05 1007.74 1008.46 1009.13 1009.64 1009.95 1010.03 1009.94 1009.73 1009.48 1009.27 1009.14 1009.12 1009.22 1009.38 1009.56 1009.73 1009.86 1009.93 1009.96 1009.99 1010.05 1010.17 1010.35 1010.59 1010.85 1011.10 1011.27 1011.33 1011.24 1011.02 1010.68 1010.25 1009.79 1009.35 1008.98 1008.71 1008.56
Thickness
5801 5803 5803 5801 5800 5800 5799 5797 5796 5795 5794 5794 5793 5792 5791 5789 5788 5786 5785 5783 5781 5779 5778 5776 5776 5775 5774 5773 5772 5771 5769 5768 5766 5765 5764 5763 5762 5760 5760 5759 5757 5756 5755
5807 5805 5803 5803 5801 5800 5799 5797 5796 5795 5794 5793 5792 5791 5790 5788 5786 5785 5783 5782 5780 5778 5776 5775 5774 5774 5773 5772 5771 5769 5768 5767 5765 5765 5763 5762 5761 5759 5759 5758 5756 5755 5753
5808 5805 5803 5803 5801 5800 5799 5797 5796 5795 5793 5792 5791 5790 5789 5787 5786 5784 5782 5780 5779 5777 5776 5774 5773 5773 5772 5771 5769 5768 5767 5766 5765 5764 5762 5760 5759 5758 5757 5756 5755 5754 5752
5809 5806 5804 5803 5801 5800 5799 5797 5796 5795 5793 5792 5791 5789 5788 5787 5785 5784 5781 5779 5777 5776 5775 5773 5773 5772 5771 5769 5768 5767 5766 5764 5763 5762 5760 5759 5757 5756 5756 5755 5754 5753 5751
5809 5806 5805 5803 5801 5800 5799 5797 5796 5794 5793 5791 5790 5788 5787 5786 5784 5783 5780 5778 5777 5775 5774 5773 5772 5771 5769 5768 5767 5766 5765 5763 5762 5760 5759 5758 5756 5755 5755 5754 5753 5752 5750
5808 5806 5804 5802 5801 5799 5798 5797 5795 5793 5792 5791 5789 5787 5786 5784 5783 5781 5779 5777 5776 5775 5773 5772 5771 5770 5769 5768 5767 5765 5764 5762 5761 5759 5758 5757 5756 5755 5754 5753 5752 5751 5750
5807 5806 5804 5802 5801 5799 5797 5796 5794 5792 5791 5789 5788 5786 5784 5783 5782 5780 5779 5777 5775 5774 5773 5772 5770 5769 5768 5767 5766 5765 5763 5762 5760 5759 5757 5756 5755 5755 5754 5752 5751 5750 5749
5808 5805 5803 5802 5800 5798 5797 5795 5793 5792 5790 5788 5787 5786 5783 5782 5781 5779 5778 5776 5775 5774 5772 5771 5770 5768 5767 5766 5765 5764 5763 5761 5760 5758 5757 5755 5755 5754 5753 5752 5751 5749 5748
5808 5805 5802 5800 5799 5798 5796 5794 5792 5791 5789 5788 5788 5786 5783 5782 5780 5779 5777 5775 5774 5773 5772 5771 5769 5767 5766 5765 5764 5763 5761 5761 5759 5758 5756 5755 5754 5754 5753 5751 5750 5749 5747
5806 5804 5802 5800 5798 5797 5795 5794 5792 5790 5789 5788 5787 5786 5783 5781 5779 5778 5776 5775 5774 5773 5771 5770 5769 5767 5766 5765 5763 5762 5761 5759 5758 5757 5756 5755 5754 5753 5752 5751 5749 5748 5747
5803 5802 5801 5799 5798 5796 5795 5793 5792 5791 5789 5787 5785 5784 5782 5780 5779 5778 5777 5775 5774 5772 5770 5769 5768 5767 5766 5764 5763 5762 5760 5759 5758 5757 5756 5755 5754 5753 5752 5751 5749 5747 5746
5800 5801 5801 5799 5798 5796 5795 5793 5791 5790 5789 5787 5785 5783 5782 5780 5778 5778 5777 5775 5774 5772 5770 5769 5767 5766 5765 5764 5763 5761 5760 5759 5758 5757 5756 5755 5754 5753 5752 5751 5749 5747 5746
5804 5803 5802 5800 5798 5796 5795 5793 5791 5789 5788 5786 5785 5783 5781 5780 5778 5777 5776 5774 5773 5771 5770 5768 5766 5765 5764 5763 5762 5761 5760 5758 5758 5757 5756 5756 5754 5753 5752 5751 5749 5747 5746
5805 5805 5804 5802 5799 5797 5796 5794 5791 5789 5787 5786 5785 5783 5781 5779 5778 5777 5775 5774 5772 5771 5769 5767 5766 5765 5764 5763 5762 5761 5760 5758 5758 5757 5756 5756 5755 5753 5752 5751 5749 5747 5745
5807 5806 5805 5804 5801 5798 5796 5794 5792 5790 5788 5787 5786 5784 5783 5780 5778 5777 5775 5774 5772 5771 5769 5767 5766 5765 5764 5763 5762 5761 5760 5759 5758 5757 5757 5756 5755 5753 5752 5751 5749 5748 5746
5810 5808 5807 5805 5802 5800 5797 5795 5793 5791 5789 5788 5787 5785 5784 5782 5780 5777 5775 5774 5772 5771 5769 5767 5766 5765 5764 5763 5763 5762 5761 5760 5758 5758 5757 5756 5755 5754 5752 5751 5750 5748 5746
5812 5810 5808 5806 5804 5801 5798 5796 5795 5793 5791 5789 5787 5786 5785 5783 5781 5779 5776 5774 5773 5772 5770 5768 5766 5765 5764 5764 5763 5763 5762 5761 5760 5759 5758 5756 5754 5753 5752 5751 5750 5747 5745
5813 5810 5809 5808 5804 5802 5799 5797 5796 5794 5791 5789 5788 5786 5785 5783 5782 5779 5777 5775 5775 5773 5771 5768 5766 5764 5763 5762 5761 5761 5761 5760 5759 5759 5758 5756 5754 5753 5752 5750 5749 5747 5745
5815 5812 5808 5807 5804 5802 5800 5798 5796 5794 5791 5789 5787 5786 5785 5784 5782 5780 5777 5776 5774 5772 5771 5769 5767 5764 5761 5761 5760 5760 5760 5759 5759 5759 5758 5757 5755 5754 5752 5750 5748 5746 5744
5817 5813 5809 5806 5803 5801 5799 5796 5794 5792 5790 5789 5787 5786 5785 5784 5782 5780 5778 5776 5774 5771 5770 5768 5766 5764 5762 5760 5760 5759 5759 5759 5759 5758 5758 5757 5755 5754 5751 5749 5747 5746 5744
5816 5812 5808 5805 5802 5800 5796 5792 5789 5787 5788 5787 5787 5786 5785 5784 5782 5780 5778 5775 5773 5771 5769 5768 5765 5762 5760 5760 5756 5753 5755 5757 5757 5757 5757 5755 5754 5753 5751 5749 5746 5744 5743
5815 5811 5808 5805 5803 5800 5798 5794 5791 5789 5787 5786 5786 5785 5784 5783 5782 5780 5778 5775 5773 5771 5768 5767 5764 5760 5759 5759 5754 5748 5744 5746 5752 5756 5755 5754 5752 5751 5749 5747 5745 5743 5742
5814 5811 5810 5805 5803 5801 5798 5795 5791 5787 5785 5782 5782 5782 5782 5782 5781 5780 5778 5776 5774 5771 5768 5767 5765 5762 5757 5758 5757 5750 5741 5737 5742 5748 5751 5751 5750 5748 5747 5745 5744 5742 5740
5815 5813 5810 5806 5803 5800 5798 5793 5788 5783 5779 5779 5780 5780 5781 5781 5781 5779 5778 5776 5774 5772 5769 5768 5767 5764 5760 5755 5755 5754 5752 5748 5740 5739 5744 5746 5746 5745 5744 5744 5743 5741 5739
5815 5812 5808 5804 5801 5799 5796 5793 5788 5783 5781 5781 5780 5779 5778 5779 5780 5779 5777 5776 5773 5771 5769 5767 5766 5764 5761 5757 5754 5752 5750 5748 5746 5738 5735 5738 5741 5742 5742 5742 5741 5739 5738
5813 5810 5806 5802 5798 5797 5795 5792 5788 5783 5780 5778 5777 5775 5775 5776 5777 5777 5776 5774 5773 5771 5769 5767 5765 5764 5761 5758 5755 5753 5749 5745 5742 5739 5735 5734 5734 5737 5739 5740 5738 5737 5736